Location: Campillo
(40.8621°N, 4.2488°W)
Time: 10:01:46
(UTC+00:00)

USA 306 - Pass Details

Date: 01 October 2021
Orbit: 564 x 573 km, 54.0° (Epoch: 24 September)

Event Time Altitude Azimuth Distance (km) Brightness Sun altitude
Rises 20:59:20 0° 297° (WNW) 2,761 7.5 -33.9°
Reaches altitude 10° 21:02:01 10° 281° (W) 1,862 6.2 -34.3°
Enters shadow 21:03:02 14° 270° (W) 1,593 5.7 -34.5°
